Kezdőlap
METAR-TAF:

METAR-TAF

Repülőterek :

Windom Municipal Airport

Windom, Minnesota, Amerikai Egyesült Államok

földrajzi szélesség: 43-54-48N, földrajzi hosszúság: 095-06-34W, magasság: 430 m

Jelenlegi meteorológiai megfigyelések

A jelentés 15 perccel ezelõtt készült, 03:15 UTC
Délnyugati szél 10 kt
Hőmérséklet -1°C
Páratartalom 74%
Légköri nyomás 1011 hPa
Látótávolság: 16.1 km
Derült ég

METAR: KMWM 270315Z AUTO 23010KT 10SM CLR M01/M05 A2986 RMK AO2

Idő: 21:30 (03:30 UTC)


TAF: hiányzik

Meteorológiai megfigyelések és előrejelzések több, mint 4000 repülőtéren (METAR és TAF jelentéseket).

A térképen piros és sárga pontok jelzik az elérhető meteorológiai állomásokat.

Mozgassa az egeret a pont fölött, hogy megjelenjen az állomás neve.

Azután kattintson az időjárási megfigyelések és előrejelzések megtekintéséhez.

A térkép megváltoztatása: kattintson a fekete keresztel jelölt zöld gombra ráközelítéshez, a vonallal jelölt zöld gombra távolításhoz, vagy a zöld nyilakra a szomszédos térképek eléréséhez.


METAR-TAF: